AE6DC-5 Weather Reports


time (UTC)temp
F
wind
direction
speed
knots
gust
knots
rain 1hr
in
rain 24hr
in
rain mn
in
humidity
%
barometer
mb
20260507025949 55 313 8.7 12.2 0.00 0.03 0.03 8 1019.6
20260507025840 56 313 9.6 12.2 0.00 0.04 0.04 90 1019.7
20260507025301 56 314 10.4 13.9 0.00 0.04 0.04 90 1019.6
20260507024949 55 312 7.8 9.6 0.00 0.03 0.03 8 1019.5
20260507024620 56 310 8.7 11.3 0.00 0.04 0.04 90 1019.6
20260507024017 56 315 8.7 10.4 0.00 0.04 0.04 90 1019.6
20260507023949 56 302 7.8 9.6 0.00 0.03 0.03 8 1019.4
20260507023417 56 304 7.8 9.6 0.00 0.04 0.04 89 1019.6
20260507022818 56 310 8.7 12.2 0.00 0.04 0.04 89 1019.7
20260507022218 56 304 7.8 9.6 0.00 0.04 0.04 89 1019.7
20260507021949 55 291 7.0 8.7 0.00 0.03 0.03 8 1019.5
20260507021618 56 298 7.8 10.4 0.00 0.04 0.04 89 1019.6
20260507021018 56 304 7.8 10.4 0.00 0.04 0.04 89 1019.6
20260507020949 56 304 7.8 11.3 0.00 0.03 0.03 8 1019.5
20260507015950 56 292 7.0 10.4 0.00 0.03 0.03 8 1019.5
20260507015830 56 293 7.0 10.4 0.00 0.04 0.04 89 1019.6
20260507015319 56 300 7.8 10.4 0.00 0.04 0.04 89 1019.7
20260507014638 56 304 8.7 11.3 0.00 0.04 0.04 88 1019.7
20260507014018 56 295 7.0 8.7 0.00 0.04 0.04 89 1019.7
20260507013950 56 294 7.0 8.7 0.00 0.03 0.03 8 1019.5
20260507013419 56 299 7.8 9.6 0.00 0.04 0.04 89 1019.6
20260507012839 56 305 9.6 13.0 0.00 0.04 0.04 88 1019.7
20260507012219 56 305 7.8 10.4 0.00 0.04 0.04 89 1019.7
20260507011950 56 301 8.7 11.3 0.00 0.03 0.03 8 1019.5
20260507011619 56 300 7.8 10.4 0.00 0.04 0.04 89 1019.5
20260507011019 56 298 7.8 11.3 0.00 0.04 0.04 88 1019.7
20260507010419 56 303 7.8 9.6 0.00 0.04 0.04 89 1019.6
20260507005950 55 303 7.8 10.4 0.00 0.03 0.03 8 1019.5
20260507005819 56 303 7.8 11.3 0.00 0.04 0.04 89 1019.7
20260507005219 56 304 7.8 10.4 0.00 0.04 0.04 89 1019.7
20260507004639 56 303 7.8 9.6 0.00 0.04 0.04 89 1019.6
20260507004019 56 301 7.8 9.6 0.00 0.04 0.04 89 1019.4
20260507003950 56 301 7.0 8.7 0.00 0.03 0.03 8 1019.3
20260507003416 56 303 7.8 11.3 0.00 0.04 0.04 89 1019.4
20260507002949 56 296 7.0 10.4 0.00 0.03 0.03 8 1019.4
20260507002817 56 296 7.8 10.4 0.00 0.04 0.04 89 1019.5
20260507002237 56 299 7.8 9.6 0.00 0.04 0.04 89 1019.3
20260507001950 55 302 7.0 8.7 0.00 0.03 0.03 8 1019.3
20260507001617 56 306 7.8 8.7 0.00 0.04 0.04 89 1019.5
20260507001020 56 304 7.8 10.4 0.00 0.04 0.04 89 1019.6
20260507000442 56 299 7.8 9.6 0.00 0.04 0.04 89 1019.5
20260506235950 55 295 7.0 10.4 0.00 0.03 0.03 8 1019.4
20260506235820 56 296 7.0 10.4 0.00 0.04 0.04 89 1019.5
20260506235220 56 304 7.8 10.4 0.00 0.04 0.04 89 1019.5
20260506234949 56 306 8.7 10.4 0.00 0.03 0.03 8 1019.4
20260506234617 56 306 7.8 9.6 0.00 0.04 0.04 89 1019.6
20260506234017 56 301 7.8 9.6 0.00 0.04 0.04 89 1019.7
20260506233950 56 297 7.8 9.6 0.00 0.03 0.03 8 1019.5
20260506233418 56 302 8.7 9.6 0.00 0.04 0.04 89 1019.7
20260506232818 56 303 7.8 10.4 0.00 0.04 0.04 89 1019.7
20260506232230 56 304 7.8 10.4 0.00 0.04 0.04 89 1019.8
20260506231950 55 303 7.8 10.4 0.00 0.03 0.03 8 1019.6
20260506231630 56 304 7.8 9.6 0.00 0.04 0.04 89 1019.7
20260506231038 56 300 7.8 10.4 0.00 0.04 0.04 89 1019.7
20260506230430 56 306 7.8 10.4 0.00 0.04 0.04 89 1019.8
20260506225950 56 303 7.0 9.6 0.00 0.03 0.03 8 1019.8
20260506225830 56 303 7.8 10.4 0.00 0.04 0.04 89 1019.9
20260506225218 56 303 7.8 10.4 0.00 0.04 0.04 89 1020.0
20260506224618 56 305 8.7 11.3 0.00 0.04 0.04 89 1020.0
20260506224024 56 303 7.8 10.4 0.00 0.04 0.04 89 1020.0
20260506223950 56 303 7.0 9.6 0.00 0.03 0.03 8 1019.9
20260506223419 56 308 7.8 11.3 0.00 0.04 0.04 89 1020.1
20260506222859 56 303 9.6 12.2 0.00 0.04 0.04 89 1020.2
20260506222219 56 307 9.6 11.3 0.00 0.04 0.04 88 1020.3
20260506221949 56 307 8.7 11.3 0.00 0.03 0.03 8 1020.1
20260506221639 56 307 7.8 9.6 0.00 0.04 0.04 88 1020.3
20260506221019 56 298 7.8 10.4 0.00 0.04 0.04 88 1020.3
20260506220439 57 307 7.0 9.6 0.00 0.04 0.04 88 1020.5
20260506215949 56 303 7.8 10.4 0.00 0.03 0.03 8 1020.5
20260506215840 56 303 8.7 11.3 0.00 0.04 0.04 88 1020.7
20260506215220 56 307 7.0 11.3 0.00 0.04 0.04 88 1020.6
20260506214949 56 303 7.0 8.7 0.00 0.03 0.03 8 1020.4
20260506214619 57 305 7.8 9.6 0.00 0.04 0.04 88 1020.5
20260506214020 57 303 7.8 9.6 0.00 0.04 0.04 88 1020.5
20260506213950 56 302 7.0 8.7 0.00 0.03 0.03 8 1020.4
20260506213420 57 306 7.0 10.4 0.00 0.04 0.04 88 1020.6
20260506212949 56 303 7.0 9.6 0.00 0.03 0.03 8 1020.4
20260506212817 57 303 7.8 9.6 0.00 0.04 0.04 88 1020.5
20260506212217 57 299 7.0 8.7 0.00 0.04 0.04 88 1020.5
20260506211949 56 304 7.0 7.8 0.00 0.03 0.03 8 1020.4
20260506211617 57 301 7.0 8.7 0.00 0.04 0.04 88 1020.5
20260506211020 57 302 7.8 9.6 0.00 0.04 0.04 87 1020.4
20260506210423 57 298 7.0 10.4 0.00 0.04 0.04 88 1020.4
20260506205949 56 304 6.1 10.4 0.00 0.03 0.03 8 1020.3
20260506205823 57 304 7.0 10.4 0.00 0.04 0.04 88 1020.5
20260506205244 57 303 7.0 9.6 0.00 0.04 0.04 87 1020.5
20260506204949 56 302 7.0 7.8 0.00 0.03 0.03 8 1020.5
20260506204623 57 302 7.0 8.7 0.00 0.04 0.04 87 1020.6
20260506204201 57 301 7.0 7.8 0.00 0.04 0.04 87 1020.7
20260506203949 56 303 7.0 9.6 0.00 0.03 0.03 8 1020.6
20260506203418 57 304 7.8 8.7 0.00 0.04 0.04 87 1020.8
20260506202818 57 301 7.0 8.7 0.00 0.04 0.04 87 1020.7
20260506202238 57 304 6.1 8.7 0.00 0.04 0.04 87 1020.7
20260506201949 57 300 6.1 7.8 0.00 0.03 0.03 8 1020.5
20260506201620 57 305 6.1 7.8 0.00 0.04 0.04 87 1020.6
20260506201021 57 307 6.1 7.8 0.00 0.04 0.04 87 1020.8
20260506200949 57 306 5.2 6.1 0.00 0.03 0.03 8 1020.7
20260506200430 57 305 5.2 7.0 0.00 0.04 0.04 87 1020.8
20260506195949 57 301 4.3 6.1 0.00 0.03 0.03 8 1020.6
20260506195851 57 301 5.2 7.0 0.00 0.04 0.04 87 1020.7
20260506195323 57 305 4.3 6.1 0.00 0.04 0.04 86 1020.9
20260506194642 0 294 5.2 6.1 0.00 0.04 0.04
20260506194019 57 304 4.3 6.1 0.00 0.04 0.04 86 1020.8
20260506193949 57 301 4.3 7.0 0.00 0.03 0.03 8 1020.7
20260506193419 57 300 4.3 7.0 0.00 0.04 0.04 86 1021.0
20260506192949 57 302 4.3 6.1 0.00 0.03 0.03 8 1020.9
20260506192819 57 302 5.2 6.1 0.00 0.04 0.04 86 1021.1
20260506192219 57 304 5.2 7.0 0.00 0.04 0.04 86 1020.2
20260506191949 57 305 4.3 6.1 0.00 0.03 0.03 8 1020.6
20260506191619 57 302 5.2 7.0 0.00 0.04 0.04 86 1021.1
20260506191016 57 305 4.3 7.0 0.00 0.04 0.04 86 1021.0
20260506190419 57 310 4.3 6.1 0.00 0.04 0.04 86 1020.9
20260506185949 57 305 4.3 5.2 0.00 0.03 0.03 8 1020.6
20260506185820 57 306 4.3 6.1 0.00 0.04 0.04 86 1020.8
20260506185220 57 301 3.5 5.2 0.00 0.04 0.04 86 1020.5
20260506184949 56 299 3.5 5.2 0.00 0.03 0.03 8 1020.5
20260506184640 57 304 4.3 6.1 0.00 0.04 0.04 86 1020.6
20260506184020 57 296 4.3 5.2 0.00 0.04 0.04 86 1020.7
20260506183950 56 299 3.5 5.2 0.00 0.03 0.03 8 1020.6
20260506183420 57 306 3.5 4.3 0.00 0.04 0.04 86 1020.6
20260506182817 57 305 4.3 6.1 0.00 0.04 0.04 87 1020.9
20260506182217 57 298 3.5 5.2 0.00 0.04 0.04 86 1020.4
20260506181950 56 295 4.3 7.0 0.00 0.03 0.03 8 1020.3
20260506181617 57 295 4.3 6.1 0.00 0.04 0.04 87 1020.5
20260506181037 57 301 4.3 6.1 0.00 0.04 0.04 86 1021.0
20260506180420 57 300 3.5 5.2 0.00 0.04 0.04 87 1021.0
20260506175949 56 301 2.6 6.1 0.03 0.03 0.03 8 1020.6
20260506175821 57 301 3.5 6.1 0.04 0.04 0.04 87 1020.7
20260506175218 57 299 4.3 7.0 0.04 0.04 0.04 87 1020.5
20260506174624 56 297 5.2 6.1 0.04 0.04 0.04 87 1020.7
20260506174044 56 301 4.3 5.2 0.04 0.04 0.04 87 1020.8
20260506173949 56 297 3.5 6.1 0.03 0.03 0.03 8 1020.7
20260506173438 57 290 4.3 6.1 0.04 0.04 0.04 87 1020.4
20260506172949 56 296 4.3 5.2 0.03 0.03 0.03 8 1020.5
20260506172838 56 296 4.3 6.1 0.04 0.04 0.04 87 1020.6
20260506172258 56 301 4.3 6.1 0.04 0.04 0.04 87 1020.6
20260506171949 56 302 3.5 5.2 0.03 0.03 0.03 8 1020.4
20260506171639 56 300 4.3 5.2 0.04 0.04 0.04 87 1020.7
20260506171018 56 303 4.3 5.2 0.04 0.04 0.04 87 1020.8
20260506170949 56 302 4.3 5.2 0.03 0.03 0.03 8 1020.7
20260506170419 56 304 4.3 6.1 0.04 0.04 0.04 87 1020.9
20260506165949 56 308 3.5 4.3 0.00 0.00 0.00 8 1020.6
20260506165819 56 309 3.5 4.3 0.00 0.00 0.00 87 1020.7
20260506165239 56 310 3.5 4.3 0.00 0.00 0.00 87 1020.7
20260506164949 56 302 3.5 4.3 0.00 0.00 0.00 8 1020.5
20260506164619 57 313 3.5 4.3 0.00 0.00 0.00 87 1020.7
20260506164019 56 304 3.5 4.3 0.00 0.00 0.00 86 1020.7
20260506163949 56 302 2.6 3.5 0.00 0.00 0.00 8 1020.5
20260506163419 56 306 3.5 5.2 0.00 0.00 0.00 86 1020.7
20260506162949 56 322 2.6 2.6 0.00 0.00 0.00 8 1020.6
20260506162840 56 323 2.6 3.5 0.00 0.00 0.00 86 1020.7
20260506162219 56 313 3.5 4.3 0.00 0.00 0.00 86 1020.8
20260506161949 56 313 3.5 5.2 0.00 0.00 0.00 8 1020.6
20260506161619 56 303 4.3 5.2 0.00 0.00 0.00 86 1020.7
20260506161028 56 309 3.5 4.3 0.00 0.00 0.00 86 1020.7
20260506160429 57 314 3.5 3.5 0.00 0.00 0.00 86 1020.8
20260506155950 56 327 2.6 3.5 0.00 0.00 0.00 8 1020.6
20260506155829 57 328 2.6 3.5 0.00 0.00 0.00 86 1020.8
20260506155248 57 319 2.6 3.5 0.00 0.00 0.00 86 1020.7
20260506154949 56 318 1.7 2.6 0.00 0.00 0.00 8 1020.5
20260506154629 56 323 2.6 3.5 0.00 0.00 0.00 86 1020.7
20260506154029 56 296 3.5 3.5 0.00 0.00 0.00 86 1020.7
20260506153949 56 302 2.6 3.5 0.00 0.00 0.00 8 1020.5
20260506153429 56 303 2.6 3.5 0.00 0.00 0.00 86 1020.6
20260506152949 56 302 2.6 3.5 0.00 0.00 0.00 8 1020.5
20260506152829 56 303 3.5 4.3 0.00 0.00 0.00 86 1020.7
20260506152229 56 295 2.6 2.6 0.00 0.00 0.00 86 1020.7
20260506151950 56 306 1.7 3.5 0.00 0.00 0.00 8 1020.6
20260506151620 56 309 3.5 4.3 0.00 0.00 0.00 86 1020.7
20260506151029 56 286 1.7 2.6 0.00 0.00 0.00 86 1020.7
20260506150430 56 286 1.7 1.7 0.00 0.00 0.00 86 1020.7
20260506145949 56 326 1.7 3.5 0.00 0.00 0.00 8 1020.6
20260506145829 56 326 2.6 4.3 0.00 0.00 0.00 86 1020.7
20260506145221 56 324 4.3 5.2 0.00 0.00 0.00 86 1020.7
20260506144949 56 326 3.5 5.2 0.00 0.00 0.00 8 1020.5
20260506144621 56 335 4.3 7.0 0.00 0.00 0.00 86 1020.7
20260506144021 56 317 3.5 5.2 0.00 0.00 0.00 85 1020.7
20260506143949 56 314 2.6 4.3 0.00 0.00 0.00 8 1020.5
20260506143421 56 302 5.2 6.1 0.00 0.00 0.00 85 1020.6
20260506142949 56 329 4.3 7.0 0.00 0.00 0.00 8 1020.5
20260506142821 56 330 4.3 7.0 0.00 0.00 0.00 85 1020.6
20260506142221 56 312 4.3 5.2 0.00 0.00 0.00 85 1020.5
20260506141950 56 334 3.5 4.3 0.00 0.00 0.00 8 1020.4
20260506141621 56 314 3.5 5.2 0.00 0.00 0.00 85 1020.5
20260506141021 57 327 4.3 7.0 0.00 0.00 0.00 85 1020.4
20260506140421 57 335 4.3 6.1 0.00 0.00 0.00 85 1020.4
20260506135949 56 325 3.5 5.2 0.00 0.00 0.00 8 1020.2
20260506135841 57 326 4.3 5.2 0.00 0.00 0.00 84 1020.3
20260506135221 57 325 4.3 5.2 0.00 0.00 0.00 84 1020.2
20260506134622 57 334 4.3 7.0 0.00 0.00 0.00 84 1020.2
20260506134022 57 331 4.3 6.1 0.00 0.00 0.00 83 1020.1
20260506133949 56 333 4.3 6.1 0.00 0.00 0.00 8 1020.0
20260506133503 57 326 5.2 7.0 0.00 0.00 0.00 83 1020.1
20260506132822 57 334 4.3 6.1 0.00 0.00 0.00 82 1020.1
20260506132223 57 307 4.3 5.2 0.00 0.00 0.00 81 1019.9
20260506131950 56 299 4.3 6.1 0.00 0.00 0.00 8 1019.8
20260506131622 57 310 4.3 5.2 0.00 0.00 0.00 82 1019.9
20260506131023 57 308 5.2 7.0 0.00 0.00 0.00 82 1019.9
20260506130950 56 306 4.3 5.2 0.00 0.00 0.00 8 1019.7
20260506130423 57 327 5.2 6.1 0.00 0.00 0.00 82 1019.9
20260506125949 56 312 3.5 5.2 0.00 0.00 0.00 8 1019.7
20260506125822 57 313 4.3 6.1 0.00 0.00 0.00 82 1019.9
20260506125223 57 311 6.1 7.0 0.00 0.00 0.00 82 1019.8
20260506124949 56 305 5.2 7.0 0.00 0.00 0.00 8 1019.7
20260506124623 57 321 6.1 7.0 0.00 0.00 0.00 82 1019.8
20260506124023 57 305 5.2 7.0 0.00 0.00 0.00 82 1019.8
20260506123950 56 304 4.3 5.2 0.00 0.00 0.00 8 1019.6
20260506123417 57 318 5.2 7.0 0.00 0.00 0.00 83 1019.7
20260506122817 57 305 6.1 7.8 0.00 0.00 0.00 83 1019.6
20260506122238 57 314 5.2 6.1 0.00 0.00 0.00 83 1019.6
20260506121950 56 320 5.2 5.2 0.00 0.00 0.00 8 1019.5
20260506121624 57 317 5.2 7.0 0.00 0.00 0.00 83 1019.6
20260506121024 57 306 5.2 7.0 0.00 0.00 0.00 83 1019.6
20260506120949 56 307 5.2 7.0 0.00 0.00 0.00 8 1019.4
20260506120424 57 308 5.2 7.0 0.00 0.00 0.00 83 1019.5
20260506115950 56 292 4.3 7.0 0.00 0.00 0.00 8 1019.4
20260506115844 57 293 5.2 7.8 0.00 0.00 0.00 83 1019.5
20260506115224 57 308 5.2 7.0 0.00 0.00 0.00 83 1019.5
20260506114950 56 306 5.2 6.1 0.00 0.00 0.00 8 1019.3
20260506114618 57 306 5.2 7.0 0.00 0.00 0.00 83 1019.4
20260506114018 57 303 6.1 7.8 0.00 0.00 0.00 83 1019.4
20260506113950 57 301 5.2 7.0 0.00 0.00 0.00 8 1019.3
20260506113418 57 298 4.3 7.0 0.00 0.00 0.00 83 1019.4
20260506112949 56 303 4.3 6.1 0.00 0.00 0.00 8 1019.3
20260506112819 57 303 5.2 7.0 0.00 0.00 0.00 83 1019.4
20260506112218 57 306 5.2 7.0 0.00 0.00 0.00 83 1019.4
20260506111949 56 303 5.2 7.0 0.00 0.00 0.00 8 1019.2
20260506111639 57 301 6.1 7.8 0.00 0.00 0.00 83 1019.3
20260506111039 57 305 5.2 6.1 0.00 0.00 0.00 83 1019.2
20260506110951 56 303 5.2 6.1 0.00 0.00 0.00 8 1019.1
20260506110419 57 303 6.1 7.8 0.00 0.00 0.00 83 1019.2
20260506110000 57 300 6.1 7.8 0.00 0.00 0.00 83 1019.2
20260506105949 56 300 5.2 7.0 0.00 0.00 0.00 8 1019.0
20260506105219 57 304 6.1 7.8 0.00 0.00 0.00 83 1019.1
20260506104951 56 301 5.2 7.0 0.00 0.00 0.00 8 1019.0
20260506104619 57 303 7.0 7.8 0.00 0.00 0.00 83 1019.2
20260506104019 57 302 5.2 7.8 0.00 0.00 0.00 84 1019.2
20260506103949 56 302 4.3 6.1 0.00 0.00 0.00 8 1019.1
20260506103440 57 303 5.2 6.1 0.00 0.00 0.00 84 1019.2
20260506102820 57 302 6.1 7.0 0.00 0.00 0.00 84 1019.2
20260506102219 57 304 5.2 6.1 0.00 0.00 0.00 84 1019.1
20260506101951 56 305 4.3 6.1 0.00 0.00 0.00 8 1019.0
20260506101620 57 306 5.2 6.1 0.00 0.00 0.00 84 1019.1
20260506101039 57 304 5.2 6.1 0.00 0.00 0.00 84 1019.1
20260506100951 57 305 5.2 6.1 0.00 0.00 0.00 8 1019.0
20260506100420 57 305 5.2 5.2 0.00 0.00 0.00 84 1019.1
20260506095950 57 306 5.2 6.1 0.00 0.00 0.00 8 1018.9
20260506095820 57 307 6.1 7.0 0.00 0.00 0.00 84 1019.1
20260506095220 57 300 5.2 7.0 0.00 0.00 0.00 84 1019.1
20260506094949 57 297 4.3 6.1 0.00 0.00 0.00 8 1019.0
20260506094620 57 296 6.1 7.8 0.00 0.00 0.00 85 1019.1
20260506094020 57 299 5.2 7.0 0.00 0.00 0.00 85 1019.2
20260506093949 57 297 5.2 7.0 0.00 0.00 0.00 8 1019.0
20260506093420 57 298 4.3 6.1 0.00 0.00 0.00 85 1019.1
20260506092950 57 303 5.2 6.1 0.00 0.00 0.00 8 1018.9
20260506092820 57 303 5.2 7.0 0.00 0.01 0.00 86 1019.1
20260506092241 57 300 5.2 6.1 0.00 0.01 0.00 86 1019.1
20260506091949 57 292 3.5 5.2 0.00 0.00 0.00 8 1018.9
20260506091621 57 288 4.3 7.8 0.00 0.01 0.00 86 1019.1
20260506091020 57 301 3.5 6.1 0.00 0.01 0.00 86 1019.1
20260506090421 57 301 5.2 6.1 0.00 0.01 0.00 86 1019.1
20260506085949 57 289 4.3 5.2 0.00 0.00 0.00 8 1018.9
20260506085859 57 290 4.3 6.1 0.00 0.01 0.00 87 1019.1
20260506085219 57 300 3.5 6.1 0.00 0.01 0.00 87 1019.1
20260506084949 57 302 4.3 5.2 0.00 0.01 0.00 8 1018.9
20260506084639 57 301 5.2 7.0 0.00 0.01 0.00 87 1019.0
20260506084019 57 300 5.2 6.1 0.00 0.02 0.00 87 1019.1
20260506083949 57 300 4.3 6.1 0.00 0.03 0.00 8 1019.0
20260506083439 57 301 5.2 7.0 0.00 0.05 0.00 87 1019.2
20260506082819 57 303 6.1 7.0 0.00 0.07 0.00 87 1019.2
20260506082308 57 303 5.2 6.1 0.00 0.07 0.00 87 1019.2
20260506081950 57 302 4.3 5.2 0.00 0.06 0.00 8 1019.1
20260506081619 57 303 4.3 5.2 0.00 0.07 0.00 87 1019.2
20260506081019 57 303 5.2 6.1 0.00 0.09 0.00 87 1019.2
20260506080439 57 308 4.3 6.1 0.00 0.12 0.00 87 1019.2
20260506073417 57 303 5.2 7.0 0.00 0.15 0.00 87 1018.9
20260506072817 57 307 4.3 7.0 0.00 0.16 0.00 87 1018.9
20260506072220 57 302 5.2 7.0 0.00 0.16 0.00 86 1018.9
20260506071950 57 303 4.3 5.2 0.00 0.15 0.00 8 1018.7
20260506071620 58 304 4.3 5.2 0.00 0.16 0.00 86 1018.9
20260506071020 58 296 4.3 7.0 0.00 0.16 0.00 86 1018.8
20260506070500 58 281 6.1 7.0 0.00 0.16 0.00 86 1018.7
20260506062218 57 293 6.1 7.0 0.00 0.17 0.16 87 1018.5
20260506061949 57 293 5.2 7.8 0.00 0.17 0.15 8 1018.3
20260506061638 57 293 7.0 7.8 0.00 0.17 0.16 87 1018.5
20260506061038 57 293 7.0 8.7 0.00 0.17 0.16 87 1018.4
20260506060949 57 294 6.1 7.0 0.00 0.17 0.15 8 1018.3
20260506060422 57 295 6.1 8.7 0.00 0.18 0.16 88 1018.4
20260506051037 57 280 6.1 7.8 0.00 0.21 0.16 90 1018.2
20260506050422 57 282 7.0 7.8 0.00 0.22 0.16 90 1018.2
20260506044640 57 267 6.1 7.0 0.00 0.22 0.16 90 1018.0
20260506044020 57 250 4.3 6.1 0.00 0.22 0.16 90 1018.1
20260506043950 57 263 4.3 6.1 0.00 0.21 0.15 9 1017.9
20260506043420 57 265 5.2 6.1 0.00 0.22 0.16 90 1018.0
20260506042949 57 258 4.3 5.2 0.00 0.21 0.15 9 1017.8
20260506042820 57 259 5.2 6.1 0.00 0.22 0.16 90 1017.9
20260506042220 57 262 5.2 6.1 0.00 0.22 0.16 90 1017.9
20260506041951 57 259 4.3 6.1 0.00 0.21 0.15 9 1017.6
20260506041621 57 259 5.2 6.1 0.00 0.22 0.16 90 1017.7
20260506041021 57 253 4.3 6.1 0.00 0.22 0.16 90 1017.7
20260506040949 57 262 4.3 6.1 0.00 0.21 0.15 9 1017.5
20260506040429 57 259 4.3 6.1 0.00 0.22 0.16 90 1017.6
20260506035949 57 260 5.2 7.8 0.00 0.21 0.15 9 1017.4
20260506035829 57 260 6.1 7.8 0.00 0.22 0.16 90 1017.5
20260506035218 57 266 6.1 7.0 0.00 0.22 0.16 90 1017.5
20260506034618 57 258 5.2 6.1 0.00 0.22 0.16 90 1017.4
20260506034018 57 267 5.2 6.1 0.00 0.22 0.16 90 1017.3
20260506033950 57 262 4.3 6.1 0.00 0.21 0.15 8 1017.2
20260506033418 57 260 4.3 6.1 0.00 0.22 0.16 90 1017.3
20260506032818 57 265 5.2 7.0 0.00 0.22 0.16 90 1017.2
20260506032218 57 259 5.2 7.0 0.00 0.22 0.16 90 1017.1
20260506031951 57 251 4.3 5.2 0.00 0.21 0.15 8 1017.0
20260506031638 57 262 5.2 6.1 0.00 0.22 0.16 90 1017.1
20260506031018 57 248 5.2 7.0 0.00 0.22 0.16 90 1017.0
20260506030949 57 255 4.3 6.1 0.00 0.21 0.15 8 1016.9
20260506030418 57 254 5.2 6.1 0.00 0.22 0.16 90 1017.0